NOAA 16 DEB, 41421

Orbit data source: Space-Track

NOAA 16 DEB, 41421 is space debris in SSO originally from a launch on Thu, 21 Sep 2000 UTC launched from the Air Force Western Test Range (AFWTR). Debris objects in space refer to the collection of defunct objects orbiting the Earth. Examples of debris include non-operational satellites, rocket bodies, and fragments generated from explosions, collisions, or faulty payload assembly.

Loading next visibility...
Identifier
41421, 2000-055LA
Orbit
SSO
Country
Flag of USUS
Related business
Manufacturer
Unknown
Mission
Spacecraft
Bus & Motor
Unknown
Mass
Unknown
Launch date (UTC)
2000-09-21 (25 years ago)
Launch vehicle
Unknown
Launch site
Air Force Western Test Range (AFWTR)
Object type
Payload
Rocket body
Debris
Shape & HBR
Unknown shape, 0.1 m
Radar Cross Section
Small (<0.1 m²)

Expand to show TLE details & history
Last TLE update: 1 day ago

TLE from 1 day ago
0 NOAA 16 DEB
1 41421U 00055LA  25349.52634415  .00010938  00000-0  20868-2 0  9992
2 41421  98.9542 198.5559 0030933 266.6720  93.0941 14.63866853511834
Epoch: 2025-12-15T12:37Z
TLE epoch observation values (Epoch: 2025-12-15T12:37:56.134Z)
Latitude
-0.00002°
Longitude
-75.35163°
Altitude
684.928 km
Speed
7.513 km/s
True Right ascension
13h 14m 13s
True Declination
0° 00' 00"
Sunlit
Object was in daylight at epoch
Visualization orbit readout
Latitude
Unknown
Longitude
Unknown
Altitude
Unknown
Speed
Unknown
Apparent Right ascension
Unknown
Apparent Declination
Unknown
Sunlit
N/A
Visualization observer readout
Local Sidereal Time
14:46:06
Azimuth
Unknown
Elevation
Unknown
Doppler factor
Unknown
Orbital elements
Apogee altitude
699.654 km
Perigee altitude
656.002 km
Semi-major axis
7,055.965 km
Eccentricity
0.00309
Inclination
98.9542°
RAAN
198.5559°
Arg. of periapsis
266.672°
True anomaly
93.44797°
Mean anomaly
93.0941°
Eccentric anomaly
93.27104°
Mean motion
3.66192 °/min
Orbital period
98.31 mins
BSTAR
0.0020868
Loading maneuver chart data...
Computing Atmospheric mass density...

Documentation

Showing up to 5 results
|